Location: ???????
(55.2903°N, 39.1554°E)
Time: 02:04:05
(UTC+00:00)

Cosmos 1943 Rocket - Visible Passes

Search period start: 19 July 2024 00:00
Search period end: 29 July 2024 00:00
Orbit: 811 x 843 km, 71.0° (Epoch: 18 July)

Date Brightness Start Highest point End Pass type
(mag) Time Alt. Az. Time Alt. Az. Time Alt. Az.
19 Jul 2.8 19:08:58 10° S 19:14:04 36° ESE 19:19:10 10° NE visible
19 Jul 2.8 20:52:05 10° SW 20:57:39 57° NW 21:03:12 10° NNE visible
19 Jul 4.5 22:38:15 10° WNW 22:42:35 22° NNW 22:46:54 10° NNE visible
20 Jul 2.9 18:49:44 10° S 18:54:42 33° ESE 18:59:40 10° NE visible
20 Jul 2.7 20:32:35 10° SW 20:38:10 62° NW 20:43:45 10° NNE visible
20 Jul 4.4 22:18:35 10° WNW 22:23:02 23° NNW 22:27:27 10° NNE visible
21 Jul 4.8 00:05:28 10° NW 00:08:52 16° N 00:12:16 10° NE visible
21 Jul 3.1 18:30:31 10° SSE 18:35:20 30° ESE 18:40:08 10° NE visible
21 Jul 2.5 20:13:05 10° SW 20:18:43 68° NW 20:24:19 10° NNE visible
21 Jul 4.4 21:58:56 10° W 22:03:28 24° NNW 22:08:00 10° NNE visible
21 Jul 4.9 23:45:52 10° NW 23:49:16 16° N 23:52:40 10° NE visible
22 Jul 2.4 19:53:37 10° SW 19:59:15 74° NW 20:04:53 10° NNE visible
22 Jul 4.3 21:39:17 10° W 21:43:56 25° NNW 21:48:34 10° NNE visible
22 Jul 4.9 23:26:15 10° NW 23:29:41 16° N 23:33:05 10° NE visible
23 Jul 2.3 19:34:09 10° SW 19:39:48 81° NW 19:45:27 10° NNE visible
23 Jul 4.3 21:19:38 10° W 21:24:23 27° NNW 21:29:07 10° NNE visible
23 Jul 4.9 23:06:37 10° NW 23:10:05 16° N 23:13:31 10° NNE visible
24 Jul 2.2 19:14:42 10° SSW 19:20:22 88° NW 19:26:01 10° NNE visible
24 Jul 4.2 21:00:01 10° W 21:04:51 28° NNW 21:09:40 10° NNE visible
24 Jul 4.9 22:47:00 10° NW 22:50:29 16° N 22:53:58 10° NNE visible
25 Jul 2.2 18:55:16 10° SSW 19:00:55 85° ESE 19:06:34 10° NE visible
25 Jul 4.1 20:40:23 10° W 20:45:19 30° NW 20:50:14 10° NNE visible
25 Jul 5.0 22:27:21 10° NW 22:30:54 17° N 22:34:25 10° NNE visible
26 Jul 5.0 00:12:56 10° NNW 00:16:51 19° NNE 00:20:45 10° ENE visible
26 Jul 2.2 18:35:52 10° SSW 18:41:29 78° ESE 18:47:07 10° NE visible
26 Jul 4.0 20:20:46 10° W 20:25:48 32° NW 20:30:48 10° NNE visible
26 Jul 5.0 22:07:42 10° NW 22:11:18 17° N 22:14:54 10° NNE visible
26 Jul 5.0 23:53:26 10° NNW 23:57:17 18° NNE 00:01:05 10° ENE visible
27 Jul 2.2 18:16:28 10° SSW 18:22:04 71° ESE 18:27:39 10° NE visible
27 Jul 4.0 20:01:10 10° WSW 20:06:16 34° NW 20:11:21 10° NNE visible
27 Jul 5.0 21:48:02 10° NW 21:51:43 17° NNW 21:55:23 10° NNE visible
27 Jul 5.1 23:33:57 10° NNW 23:37:42 18° NNE 23:41:25 10° ENE visible
28 Jul 3.8 19:41:33 10° WSW 19:46:45 37° NW 19:51:56 10° NNE visible
28 Jul 5.1 21:28:22 10° WNW 21:32:08 18° NNW 21:35:53 10° NNE visible
28 Jul 5.1 23:14:27 10° NNW 23:18:06 17° NNE 23:21:44 10° NE visible
